Terug naar catalogus

COSMOS 2251 DEB

ActiefLEO
NORAD 33758·DEBRIS·🇷🇺 Russia

Gelanceerd Jun 16, 1993 vanaf Plesetsk Cosmodrome

Loading…

Volgende Passages (komende 24 uur)

TLE

VersSource: Space-Track

Epoch: Sep 14, 2026, 17:23 UTC

1 33758U 93036F   26257.72481484  .00001940  00000-0  47428-3 0  9999
2 33758  74.0264  54.3940 0016319  56.4630 315.0807 14.53181198923122

Volg COSMOS 2251 DEB in realtime met AllMySat

Download on the App Store